Regional Weather Roundup
Issued by NWS

Home | Current Version | Previous Version | Graphics & Text | Print | Product List | Glossary On
Versions: 1 2 3 4 5 6 7 8 9 10 11 12 13 14 15 16 17 18 19 20 21 22 23 24 25 26 27 28 29 30 31 32 33 34 35 36 37 38 39 40 41 42 43 44 45 46 47 48 49 50
406
ASUS44 KJAN 270003
RWRMS

MISSISSIPPI HOURLY WEATHER ROUNDUP
NATIONAL WEATHER SERVICE JACKSON MS
700 PM CDT THU MAR 26 2015

NOTE: "FAIR: INDICATES FEW OR NO CLOUDS BELOW 12,000 FEET WITH NO
SIGNIFICANT WEATHER AND/OR OBSTRUCTIONS TO VISIBILITY.

MSZ001>002-007>008-010>013-018>021-025>028-034>036-270100-
NORTHWEST MISSISSIPPI

CITY           SKY/WX    TMP DP  RH WIND       PRES   REMARKS
CLARKSDALE     CLOUDY    48  46  93 N14G22    30.02R
CLEVELAND      DRIZZLE   49  48  97 N18       30.01R
GREENWOOD      CLOUDY    52  43  71 N13       29.96R
6HR MIN TEMP:  52; 6HR MAX TEMP:  74;

GREENVILLE     LGT RAIN  50  46  86 N15G24    29.99R
6HR MIN TEMP:  50; 6HR MAX TEMP:  70; 6HR PCP: TRACE;

OLIVE BRANCH   CLOUDY    45  45 100 NW14      30.00S
OXFORD         CLOUDY    45  43  93 N7        29.98S
TUNICA         CLOUDY    46  43  87 N14G22    30.03R
$$

MSZ003>006-009-014>017-022>024-029>033-037>039-270100-
NORTHEAST MISSISSIPPI

CITY           SKY/WX    TMP DP  RH WIND       PRES   REMARKS
COLUMBUS AFB   CLOUDY    55  46  71 NW20G29   29.89R
CORINTH        LGT RAIN  46  43  87 N8        29.96R
STARKVILLE     DRIZZLE   52  50  93 NW7G17    29.90R
TUPELO         CLOUDY    49  42  77 N21G26    29.95R
6HR MIN TEMP:  49; 6HR MAX TEMP:  74; 6HR PCP:  0.01;

$$

MSZ040-058-270100-
CENTRAL MISSISSIPPI

CITY           SKY/WX    TMP DP  RH WIND       PRES   REMARKS
JACKSON INTL   LGT RAIN  55  52  89 N10       29.91R
6HR MIN TEMP:  55; 6HR MAX TEMP:  77; 6HR PCP:  0.12;

JACKSON HAWKNS LGT RAIN  54  50  86 NW12      29.91R
6HR MIN TEMP:  54; 6HR MAX TEMP:  77; 6HR PCP:  0.12;

MERIDIAN KEY   CLOUDY    68  60  75 NW9       29.81R
6HR MIN TEMP:  68; 6HR MAX TEMP:  74; 6HR PCP: TRACE;

MERIDIAN NAS   CLOUDY    70  58  64 NW10      29.81R
RAYMOND        CLOUDY    54  48  82 NW12      29.92R
VICKSBURG      LGT RAIN  53  48  83 N12G20    29.96R
6HR MIN TEMP:  53; 6HR MAX TEMP:  72; 6HR PCP:  0.14;

$$

MSZ059>079-270100-
SOUTH MISSISSIPPI

CITY           SKY/WX    TMP DP  RH WIND       PRES   REMARKS
BROOKHAVEN     CLOUDY    57  57 100 N16       29.88R
HATTIESBURG    CLOUDY    67  65  93 CALM      29.84R
6HR MIN TEMP:  67; 6HR MAX TEMP:  74; 6HR PCP:  0.60;

MCCOMB         CLOUDY    66  64  93 NW8       29.84R
6HR MIN TEMP:  66; 6HR MAX TEMP:  74; 6HR PCP:  0.29;

NATCHEZ        CLOUDY    55  48  76 N18G26    29.93R
6HR MIN TEMP:  55; 6HR MAX TEMP:  72;

PINE BELT      CLOUDY    64  59  82 CALM      29.84R
6HR MIN TEMP:  64; 6HR MAX TEMP:  73; 6HR PCP:  0.03;

$$

MSZ080>082-270100-
COASTAL MISSISSIPPI

CITY           SKY/WX    TMP DP  RH WIND       PRES   REMARKS
BAY ST LOUIS   PTCLDY    64  59  82 S3        29.85R
BILOXI         CLOUDY    66  64  94 S3        29.84R
6HR MIN TEMP:  65; 6HR MAX TEMP:  68; 6HR PCP:  0.02;

PASCAGOULA     CLOUDY    65  63  93 SW3       29.87R
6HR MIN TEMP:  65; 6HR MAX TEMP:  68; 6HR PCP:  0.02;

GULFPORT       CLOUDY    66  62  87 CALM      29.85R
6HR MIN TEMP:  66; 6HR MAX TEMP:  70; 6HR PCP: TRACE;

$$



USA.gov is the U.S. government's official web portal to all federal, state and local government web resources and services.